Location: Litvinovka
(48.6667°N, 34.3500°E)
Time: 07:06:30
(UTC+00:00)

Cosmos 1437 - Pass Details

Date: 18 September 2020
Orbit: 366 x 369 km, 81.2° (Epoch: 19 October)

Event Time Altitude Azimuth Distance (km) Brightness Sun altitude
Rises 16:38:51 0° 346° (NNW) 2,252 6.8 -9.1°
Reaches altitude 10° 16:40:51 10° 345° (NNW) 1,395 5.8 -9.4°
Maximum altitude 16:43:52 75° 260° (W) 395 2.7 -9.9°
Drops below altitude 10° 16:46:52 10° 175° (S) 1,381 5.2 -10.4°
Sets 16:48:50 0° 173° (S) 2,226 6.2 -10.7°
